Wind_Speed
26 26 25 25 25 26 26 27 27 27 28 29 29 28 28 29 30 30 32 33 34 34 36 37 40 40 40 39 39 39 39 39 38 38 38 37 37 37 37 37 38 38 38 38
26 26 25 25 24 24 25 25 25 26 28 30 29 28 28 28 29 30 30 31 32 33 34 35 37 38 39 40 40 41 41 41 40 40 38 38 38 38 38 38 38 40 40 39
25 24 24 25 25 24 24 24 25 26 27 29 30 28 28 28 28 29 29 29 30 31 32 32 34 36 38 40 41 42 42 43 42 42 40 39 38 39 39 39 39 40 40 40
25 24 24 24 25 24 24 24 25 25 26 27 29 29 27 27 27 28 29 29 29 30 31 32 32 34 35 37 39 42 43 44 44 43 42 41 40 40 40 40 40 40 41 41
24 24 24 24 24 23 23 24 25 25 26 27 27 29 28 27 26 27 28 28 28 30 30 31 32 34 35 37 38 41 42 43 44 43 43 42 41 41 40 41 41 42 42 42
24 24 24 23 23 23 23 23 24 24 26 27 26 28 28 27 27 27 28 28 28 28 30 32 33 34 35 37 39 40 40 42 43 43 42 42 42 42 42 42 42 42 43 43
23 23 23 23 22 22 22 22 22 24 25 25 24 26 27 27 27 28 29 29 29 29 30 32 33 34 36 37 38 39 40 41 42 44 44 44 42 42 42 42 43 43 43 43
22 22 22 22 22 22 22 22 23 24 25 25 25 26 25 26 26 27 29 30 30 30 31 31 33 35 36 36 37 38 39 41 42 43 44 45 44 44 44 44 43 43 44 44
21 21 21 22 22 22 22 22 22 24 25 26 26 26 25 25 26 27 27 28 29 31 32 32 32 32 35 36 37 38 39 41 42 43 43 44 45 45 45 45 46 46 45 44
21 21 19 20 21 21 22 22 22 22 24 25 26 25 24 24 24 24 26 27 27 28 30 32 33 32 33 36 38 38 39 40 41 42 43 44 45 45 45 47 47 48 48 47
21 20 20 20 21 22 21 21 22 23 24 25 26 25 24 24 24 25 25 26 27 28 29 30 32 33 33 34 36 38 38 39 40 41 42 44 45 46 46 47 48 48 49 48
20 21 21 21 21 22 23 22 22 23 24 24 26 25 23 23 24 24 24 25 26 27 28 29 31 33 34 34 35 36 37 38 39 41 42 43 44 45 46 46 46 47 48 48
20 22 22 22 22 22 23 23 23 24 25 26 26 25 23 22 23 23 24 24 24 25 26 28 29 31 32 33 34 36 36 37 38 40 41 43 44 44 45 46 46 46 47 48
21 22 21 22 22 23 23 23 23 25 26 27 27 25 23 23 24 24 24 24 24 24 25 26 27 29 30 32 34 35 37 37 38 39 40 42 42 43 44 45 45 45 46 46
23 23 22 22 22 23 23 23 23 25 26 27 26 26 24 25 25 24 25 25 25 24 25 26 27 28 30 31 32 34 35 36 37 38 39 40 41 43 44 44 44 44 44 44
24 24 23 23 23 24 24 24 25 25 25 27 26 25 24 25 26 25 24 24 24 24 24 25 26 27 28 29 31 32 34 35 36 37 38 39 40 41 43 43 43 43 43 42
24 24 25 25 24 25 25 24 25 25 25 25 26 25 24 25 25 25 25 25 24 24 25 25 26 27 28 28 30 31 33 34 35 36 37 38 39 40 40 40 41 41 42 42
21 23 25 25 24 25 24 24 24 24 24 24 25 25 24 25 25 25 25 25 25 25 26 26 27 28 28 29 30 31 32 33 34 35 36 37 37 37 38 39 40 40 41 41
19 20 22 23 23 24 23 23 23 23 23 24 24 24 24 25 25 25 26 26 26 26 26 27 27 27 27 28 29 30 31 32 32 33 34 34 35 34 34 36 37 38 39 40
18 19 21 22 23 23 21 22 23 23 24 23 24 24 24 24 25 24 25 25 26 26 27 26 26 26 27 27 28 28 29 30 31 31 32 32 33 33 33 33 35 37 38 39
18 18 19 21 23 22 20 21 22 23 23 22 22 22 23 23 24 24 24 24 25 25 26 26 26 27 27 28 28 28 28 29 30 30 31 31 32 32 33 34 35 37 37 38
17 18 18 20 21 20 20 21 21 21 21 22 21 21 22 23 24 24 24 24 25 25 25 26 26 27 28 29 29 29 28 29 30 30 30 31 32 33 34 35 36 36 36 37
18 18 19 20 20 19 20 20 21 21 22 22 22 22 22 23 23 24 24 25 25 26 26 27 27 28 28 29 29 29 29 30 31 30 31 31 32 33 33 34 35 35 36 36
18 18 19 19 18 18 19 19 20 21 22 23 23 23 23 23 24 24 24 25 25 26 26 27 27 27 28 28 28 29 30 30 30 31 31 32 32 32 33 33 33 34 34 34
18 18 18 18 18 19 19 19 20 21 22 23 24 25 25 25 25 25 26 26 26 26 27 27 27 27 27 27 27 28 28 29 29 30 30 31 31 31 31 32 33 33 33 33
18 18 18 18 19 20 20 20 21 21 21 22 22 23 24 24 25 25 25 25 25 26 26 27 27 26 26 26 26 26 26 27 27 26 27 28 29 30 30 31 31 31 32 32
Wind_Direction
269 268 270 270 269 266 263 262 260 257 255 254 253 253 253 254 254 254 252 251 249 247 244 244 243 242 242 243 244 244 246 247 249 251 251 252 254 255 256 256 255 255 256 257
270 269 268 267 266 265 264 263 262 259 257 256 254 254 253 253 254 254 253 252 251 248 246 245 243 243 243 244 244 245 247 247 247 248 250 252 253 255 256 257 256 256 256 258
271 271 267 265 264 264 265 264 264 261 258 257 256 254 253 253 254 256 256 254 251 247 245 244 244 245 244 243 244 244 246 247 247 248 250 252 253 255 256 257 258 258 257 258
269 268 267 265 263 263 262 264 265 262 259 258 258 256 251 253 255 256 256 255 254 247 245 245 244 246 246 245 246 246 246 247 247 248 250 252 253 256 258 259 259 259 259 258
269 268 266 265 264 261 261 264 264 263 259 259 260 260 253 253 254 256 255 254 252 247 247 245 245 247 247 248 248 247 246 246 247 248 250 252 254 257 259 260 261 261 260 259
269 268 266 265 263 260 262 264 265 265 261 261 261 262 257 257 256 254 253 251 250 250 249 248 248 250 249 250 250 248 247 246 246 248 250 253 255 256 258 260 261 261 261 261
270 269 266 264 261 258 260 262 265 264 263 264 263 262 261 261 258 254 253 252 255 252 251 248 247 248 249 250 250 249 249 247 248 249 250 253 256 257 258 260 260 260 261 262
271 267 264 262 260 259 260 261 264 266 266 266 265 266 265 262 259 256 254 255 255 253 252 250 249 249 249 249 250 251 251 250 250 250 252 254 256 258 260 261 261 260 261 262
271 268 265 261 259 257 258 261 266 267 266 267 268 268 267 265 263 260 258 257 257 256 255 255 254 253 251 251 252 252 252 251 251 252 253 255 256 257 258 260 262 262 262 264
268 267 264 260 256 256 259 262 263 263 266 268 269 269 268 264 266 266 261 259 259 259 257 256 256 258 257 256 254 254 253 254 255 254 254 255 256 258 260 261 262 263 263 264
265 264 263 260 257 257 259 262 263 265 265 268 270 270 270 269 267 267 265 262 261 260 260 258 258 259 259 258 257 256 256 257 257 257 257 258 259 259 261 262 262 263 263 263
263 264 264 261 259 259 259 261 264 266 266 268 272 270 271 271 270 268 265 264 263 263 262 261 260 260 260 260 258 258 259 259 259 259 259 259 260 261 262 262 262 263 263 262
261 263 264 262 260 261 262 262 263 265 268 268 270 271 269 269 267 266 266 266 264 263 263 262 262 262 262 261 260 259 259 260 261 261 261 262 262 263 262 262 262 264 264 264
258 261 263 263 262 262 263 263 264 266 268 269 269 269 267 267 266 266 267 267 266 266 266 266 265 263 263 263 262 263 262 262 263 263 263 263 264 264 263 262 263 263 265 265
258 259 261 262 261 261 261 262 263 265 267 269 269 268 264 263 264 265 266 266 267 268 269 270 270 269 268 267 266 265 264 264 264 264 264 263 264 265 264 264 264 264 266 266
260 261 261 261 262 261 260 261 263 265 267 269 270 268 264 262 263 264 265 266 266 268 270 270 272 272 271 270 269 268 267 267 268 267 267 265 265 264 264 264 264 264 266 266
263 264 263 262 263 264 262 262 264 265 267 268 268 267 265 263 263 263 263 263 265 268 271 273 274 273 273 272 271 269 269 270 271 271 270 268 267 266 267 266 266 266 267 267
266 264 263 263 264 265 265 263 265 265 265 268 269 267 266 265 265 265 265 264 265 268 272 274 276 275 275 274 274 274 273 274 274 273 272 271 270 268 268 267 267 268 268 268
264 263 265 265 266 268 265 265 266 267 266 267 269 269 267 267 268 269 268 267 268 270 271 275 276 276 276 276 276 277 277 277 276 275 274 272 270 270 269 269 269 268 269 269
264 263 265 268 269 270 268 266 266 269 270 268 269 269 269 269 269 270 271 270 270 271 273 275 276 276 277 278 278 279 281 280 278 277 275 273 271 270 270 270 270 270 270 271
267 268 269 272 272 273 272 270 268 269 271 271 270 270 270 270 270 269 270 271 272 272 274 276 278 277 277 278 280 281 282 281 280 279 276 273 271 270 270 271 271 271 271 272
274 274 274 275 276 277 275 273 271 272 273 274 273 273 272 272 272 271 271 272 273 274 275 276 279 280 278 279 281 282 282 282 280 278 276 275 273 272 272 272 272 272 272 272
279 280 279 278 279 280 277 275 274 275 276 275 274 274 274 274 275 274 273 274 274 274 275 277 279 282 281 280 282 283 283 282 280 278 278 277 276 275 275 275 274 274 274 273
279 278 278 278 278 278 276 274 275 277 279 277 276 276 275 275 276 277 277 276 274 274 276 278 280 282 282 283 283 284 285 284 282 280 279 280 278 277 277 278 277 275 275 275
279 276 276 277 278 276 275 276 280 282 282 282 279 276 276 276 276 277 278 277 277 276 277 279 281 282 281 283 284 284 284 285 284 282 280 281 279 278 278 278 277 277 277 277
278 278 279 278 276 275 276 277 280 282 284 284 283 280 279 278 277 278 279 278 278 278 278 279 281 283 283 285 286 287 287 286 285 284 284 282 279 277 277 278 278 278 278 278
Height
5713 5714 5714 5713 5712 5712 5711 5711 5712 5713 5712 5713 5714 5715 5717 5716 5717 5718 5719 5720 5722 5724 5726 5729 5733 5737 5741 5745 5748 5751 5754 5757 5759 5761 5763 5764 5766 5767 5768 5769 5770 5772 5772 5773
5707 5707 5707 5705 5705 5704 5704 5704 5705 5705 5705 5705 5706 5708 5709 5709 5709 5710 5711 5712 5713 5715 5718 5721 5724 5728 5732 5736 5739 5742 5745 5748 5750 5752 5754 5756 5757 5758 5759 5760 5761 5762 5763 5764
5699 5700 5699 5698 5698 5698 5698 5698 5698 5698 5698 5698 5699 5701 5702 5702 5702 5702 5703 5704 5705 5707 5710 5712 5715 5719 5722 5725 5729 5733 5735 5738 5740 5742 5745 5746 5747 5749 5750 5751 5752 5753 5753 5755
5691 5692 5692 5691 5691 5691 5691 5691 5691 5690 5690 5691 5692 5692 5696 5696 5695 5695 5696 5697 5698 5700 5702 5704 5707 5710 5713 5716 5719 5722 5725 5728 5730 5732 5735 5737 5739 5740 5741 5742 5742 5743 5744 5744
5685 5685 5685 5685 5685 5684 5685 5684 5684 5683 5683 5684 5685 5685 5689 5689 5689 5689 5690 5690 5691 5692 5694 5697 5700 5702 5705 5707 5709 5712 5714 5718 5720 5722 5725 5727 5729 5730 5731 5732 5733 5733 5734 5734
5678 5678 5678 5678 5678 5678 5678 5678 5678 5677 5676 5677 5679 5678 5680 5682 5683 5683 5683 5683 5684 5686 5687 5690 5692 5694 5696 5698 5700 5702 5704 5707 5710 5712 5715 5717 5718 5720 5721 5721 5722 5722 5723 5724
5671 5671 5671 5671 5672 5672 5672 5673 5672 5670 5669 5671 5672 5671 5674 5675 5676 5676 5676 5677 5678 5679 5680 5682 5684 5685 5687 5689 5691 5692 5694 5697 5700 5702 5704 5706 5708 5709 5710 5710 5711 5712 5712 5712
5664 5665 5665 5665 5666 5666 5666 5667 5667 5665 5664 5665 5665 5665 5668 5669 5669 5669 5670 5670 5670 5671 5672 5674 5675 5676 5678 5680 5681 5683 5685 5687 5689 5691 5693 5695 5696 5697 5698 5699 5700 5701 5701 5701
5657 5659 5659 5659 5659 5660 5660 5660 5661 5660 5658 5658 5659 5660 5662 5662 5662 5662 5663 5663 5663 5664 5664 5665 5666 5667 5669 5670 5672 5673 5675 5677 5679 5680 5682 5683 5685 5686 5687 5688 5688 5689 5689 5689
5651 5651 5652 5652 5653 5653 5654 5654 5654 5653 5652 5651 5653 5654 5656 5656 5656 5655 5655 5655 5655 5656 5656 5657 5657 5658 5659 5661 5662 5664 5665 5667 5668 5669 5671 5672 5673 5675 5675 5676 5676 5677 5677 5677
5644 5645 5646 5646 5647 5647 5648 5648 5648 5647 5646 5646 5646 5650 5650 5650 5649 5649 5648 5648 5648 5648 5648 5648 5649 5649 5650 5651 5653 5654 5655 5656 5657 5658 5660 5661 5662 5663 5663 5663 5663 5664 5664 5664
5637 5638 5638 5640 5640 5641 5641 5642 5642 5642 5641 5640 5639 5645 5644 5643 5642 5641 5641 5640 5640 5640 5640 5640 5640 5641 5641 5641 5642 5643 5645 5646 5647 5647 5648 5649 5649 5650 5650 5650 5650 5650 5651 5651
5630 5631 5632 5632 5635 5635 5634 5635 5635 5635 5634 5633 5633 5638 5637 5636 5635 5634 5634 5634 5633 5632 5632 5632 5632 5632 5632 5632 5633 5633 5634 5635 5636 5636 5636 5637 5637 5637 5637 5637 5638 5637 5637 5637
5623 5624 5625 5626 5626 5627 5627 5628 5628 5627 5627 5626 5627 5629 5630 5628 5628 5627 5627 5626 5626 5625 5625 5624 5623 5623 5622 5622 5623 5623 5624 5625 5625 5625 5625 5625 5625 5625 5625 5625 5625 5624 5624 5623
5616 5617 5617 5618 5618 5619 5619 5620 5620 5620 5620 5619 5621 5621 5623 5621 5620 5620 5619 5619 5619 5618 5617 5616 5615 5614 5614 5613 5613 5614 5614 5614 5614 5614 5613 5613 5613 5612 5612 5612 5612 5612 5611 5611
5608 5609 5610 5611 5611 5611 5611 5613 5613 5613 5613 5612 5612 5614 5615 5614 5613 5613 5612 5611 5611 5611 5610 5609 5608 5607 5606 5605 5604 5604 5603 5603 5603 5602 5602 5602 5601 5600 5600 5600 5600 5600 5599 5599
5601 5602 5602 5603 5604 5603 5604 5606 5606 5606 5606 5605 5605 5607 5606 5606 5605 5605 5605 5604 5604 5603 5603 5602 5601 5599 5598 5597 5596 5595 5594 5593 5592 5591 5591 5590 5589 5589 5588 5588 5588 5588 5588 5587
5595 5594 5594 5595 5596 5595 5600 5598 5598 5598 5598 5598 5597 5598 5598 5598 5597 5597 5597 5596 5596 5595 5595 5594 5593 5591 5590 5588 5587 5586 5584 5583 5582 5581 5580 5579 5578 5578 5578 5578 5577 5577 5576 5576
5588 5587 5587 5587 5587 5588 5591 5591 5590 5590 5591 5591 5590 5591 5591 5590 5590 5590 5589 5588 5588 5588 5587 5586 5585 5583 5582 5580 5579 5577 5576 5574 5572 5571 5570 5568 5568 5567 5567 5567 5567 5566 5566 5566
5582 5581 5582 5581 5580 5581 5585 5584 5583 5583 5583 5584 5583 5583 5583 5583 5583 5584 5582 5581 5580 5579 5579 5578 5577 5575 5574 5572 5571 5569 5567 5566 5564 5562 5561 5559 5558 5558 5557 5557 5557 5556 5556 5555
5576 5576 5575 5575 5573 5574 5578 5577 5576 5577 5578 5577 5576 5576 5576 5575 5575 5575 5574 5573 5572 5571 5571 5570 5569 5567 5566 5564 5563 5561 5559 5558 5556 5554 5552 5551 5549 5549 5548 5547 5547 5546 5545 5544
5570 5570 5569 5568 5568 5571 5571 5569 5570 5570 5570 5569 5568 5568 5568 5568 5567 5566 5566 5565 5564 5563 5563 5561 5560 5559 5558 5556 5555 5553 5551 5549 5547 5545 5544 5542 5540 5539 5538 5537 5536 5535 5534 5533
5564 5565 5563 5563 5564 5564 5562 5562 5562 5562 5562 5561 5561 5561 5560 5560 5559 5558 5558 5557 5556 5555 5554 5553 5552 5550 5549 5547 5546 5544 5542 5540 5538 5537 5535 5533 5531 5530 5528 5527 5526 5525 5523 5522
5559 5558 5557 5556 5557 5557 5556 5555 5555 5554 5554 5553 5553 5552 5552 5551 5551 5550 5549 5548 5547 5546 5545 5544 5543 5542 5540 5539 5537 5535 5533 5531 5529 5527 5526 5523 5522 5520 5518 5516 5515 5514 5513 5512
5552 5551 5551 5550 5551 5550 5549 5549 5548 5547 5546 5545 5545 5544 5543 5542 5542 5541 5540 5539 5538 5537 5536 5535 5534 5533 5531 5530 5528 5526 5524 5522 5520 5518 5516 5514 5512 5510 5509 5507 5505 5504 5503 5501
5547 5546 5545 5545 5544 5543 5543 5542 5541 5540 5539 5538 5537 5536 5535 5534 5533 5532 5531 5530 5529 5528 5527 5526 5525 5524 5523 5521 5520 5518 5515 5513 5511 5509 5507 5504 5503 5501 5499 5497 5496 5494 5492 5490